N256VM SCEL-SCVM

Flight info

Callsign N256VM
Flight time 0h 27m
Altitude 10000
Route SABLA8 SABLA SABLA1D
Aircraft SR22/L-SDGRY/S

Departure

Time 2026-04-24 01:06
Airport Comodoro Arturo Merino Benítez International Airport (SCEL)

Arrival

Time 2026-04-24 01:33
Airport Viña del Mar Airport (SCVM)
Time Latitude Longitude Altitude Speed Heading
2026-04-24 00:15 -33.39066 -70.79291 1556 ft 0 kts 277°
2026-04-24 00:33 -33.39066 -70.79292 1556 ft 0 kts 277°
2026-04-24 00:59 -33.39058 -70.79308 1558 ft 13 kts 330°
2026-04-24 00:59 -33.39028 -70.79115 1559 ft 33 kts 90°
2026-04-24 00:59 -33.39017 -70.78986 1559 ft 21 kts 87°
2026-04-24 01:00 -33.38974 -70.78924 1559 ft 7 kts
2026-04-24 01:00 -33.38874 -70.78926 1558 ft 21 kts 357°
2026-04-24 01:00 -33.38687 -70.78937 1559 ft 28 kts 360°
2026-04-24 01:00 -33.38560 -70.78834 1558 ft 28 kts 358°
2026-04-24 01:01 -33.38330 -70.78853 1559 ft 38 kts 354°
2026-04-24 01:01 -33.38061 -70.78866 1555 ft 28 kts 357°
2026-04-24 01:01 -33.37869 -70.78877 1555 ft 28 kts 356°
2026-04-24 01:01 -33.37669 -70.78887 1554 ft 24 kts 359°
2026-04-24 01:02 -33.37638 -70.78887 1554 ft 3 kts 360°
2026-04-24 01:02 -33.37637 -70.78887 1554 ft 0 kts 360°
2026-04-24 01:04 -33.37581 -70.78873 1554 ft 28 kts 32°
2026-04-24 01:05 -33.37623 -70.78655 1554 ft 18 kts 182°
2026-04-24 01:05 -33.37924 -70.78645 1554 ft 78 kts 177°
2026-04-24 01:05 -33.38617 -70.78610 1619 ft 116 kts 176°
2026-04-24 01:05 -33.39454 -70.78570 1943 ft 119 kts 176°
2026-04-24 01:06 -33.40250 -70.78553 2375 ft 115 kts 177°
2026-04-24 01:06 -33.41070 -70.78535 2710 ft 119 kts 178°
2026-04-24 01:06 -33.41892 -70.78512 3082 ft 118 kts 177°
2026-04-24 01:06 -33.42712 -70.78481 3466 ft 118 kts 177°
2026-04-24 01:07 -33.43546 -70.78462 3792 ft 121 kts 177°
2026-04-24 01:07 -33.44387 -70.78445 4135 ft 122 kts 177°
2026-04-24 01:07 -33.45243 -70.78424 4485 ft 123 kts 176°
2026-04-24 01:07 -33.46101 -70.78404 4831 ft 126 kts 177°
2026-04-24 01:08 -33.46985 -70.78384 5172 ft 127 kts 177°
2026-04-24 01:08 -33.47826 -70.78362 5491 ft 129 kts 177°
2026-04-24 01:08 -33.48724 -70.78326 5841 ft 130 kts 177°
2026-04-24 01:08 -33.49632 -70.78297 6185 ft 131 kts 183°
2026-04-24 01:09 -33.50356 -70.78854 6480 ft 134 kts 244°
2026-04-24 01:09 -33.50524 -70.79921 6815 ft 131 kts 277°
2026-04-24 01:09 -33.50246 -70.80994 7106 ft 132 kts 288°
2026-04-24 01:09 -33.50054 -70.82049 7512 ft 126 kts 283°
2026-04-24 01:10 -33.49870 -70.83022 7944 ft 121 kts 283°
2026-04-24 01:10 -33.49728 -70.84055 8176 ft 133 kts 281°
2026-04-24 01:10 -33.49587 -70.85147 8529 ft 131 kts 282°
2026-04-24 01:10 -33.49330 -70.86195 8820 ft 137 kts 290°
2026-04-24 01:11 -33.48996 -70.87387 8748 ft 161 kts 290°
2026-04-24 01:11 -33.48615 -70.88703 8735 ft 172 kts 291°
2026-04-24 01:11 -33.48210 -70.90074 8742 ft 177 kts 291°
2026-04-24 01:11 -33.47784 -70.91486 8693 ft 185 kts 291°
2026-04-24 01:12 -33.47333 -70.92959 8609 ft 190 kts 292°
2026-04-24 01:12 -33.46871 -70.94451 8520 ft 193 kts 292°
2026-04-24 01:12 -33.46399 -70.95971 8431 ft 194 kts 292°
2026-04-24 01:12 -33.45922 -70.97495 8295 ft 198 kts 292°
2026-04-24 01:13 -33.45429 -70.99053 8101 ft 202 kts 292°
2026-04-24 01:13 -33.44930 -71.00636 7912 ft 204 kts 291°
2026-04-24 01:13 -33.44424 -71.02227 7716 ft 204 kts 292°
2026-04-24 01:13 -33.43915 -71.03812 7529 ft 204 kts 292°
2026-04-24 01:14 -33.43402 -71.05393 7335 ft 204 kts 292°
2026-04-24 01:14 -33.42879 -71.06983 7147 ft 204 kts 292°
2026-04-24 01:14 -33.42354 -71.08565 6956 ft 204 kts 292°
2026-04-24 01:14 -33.41834 -71.10123 6770 ft 204 kts 293°
2026-04-24 01:15 -33.41306 -71.11702 6585 ft 204 kts 293°
2026-04-24 01:15 -33.40776 -71.13283 6353 ft 205 kts 293°
2026-04-24 01:15 -33.40248 -71.14856 6280 ft 197 kts 293°
2026-04-24 01:15 -33.39751 -71.16315 6472 ft 182 kts 294°
2026-04-24 01:16 -33.39279 -71.17691 6650 ft 174 kts 294°
2026-04-24 01:16 -33.38847 -71.18962 6812 ft 149 kts 294°
2026-04-24 01:16 -33.38510 -71.19986 6946 ft 116 kts 294°
2026-04-24 01:16 -33.38232 -71.20845 7067 ft 108 kts 293°
2026-04-24 01:17 -33.37979 -71.21632 7194 ft 94 kts 293°
2026-04-24 01:17 -33.37756 -71.22339 7297 ft 90 kts 293°
2026-04-24 01:17 -33.37540 -71.23036 7462 ft 91 kts 293°
2026-04-24 01:17 -33.37286 -71.23828 7469 ft 107 kts 293°
2026-04-24 01:18 -33.37025 -71.24650 7451 ft 104 kts 293°
2026-04-24 01:18 -33.36777 -71.25441 7451 ft 99 kts 293°
2026-04-24 01:18 -33.36539 -71.26197 7440 ft 95 kts 293°
2026-04-24 01:18 -33.36313 -71.26917 7434 ft 88 kts 292°
2026-04-24 01:19 -33.36095 -71.27613 7470 ft 101 kts 292°
2026-04-24 01:19 -33.35820 -71.28467 7481 ft 118 kts 292°
2026-04-24 01:19 -33.35507 -71.29430 7477 ft 130 kts 293°
2026-04-24 01:19 -33.35169 -71.30465 7464 ft 137 kts 293°
2026-04-24 01:20 -33.34815 -71.31545 7468 ft 142 kts 293°
2026-04-24 01:20 -33.34454 -71.32644 7466 ft 146 kts 293°
2026-04-24 01:20 -33.34080 -71.33780 7466 ft 148 kts 293°
2026-04-24 01:20 -33.33719 -71.34883 7455 ft 134 kts 293°
2026-04-24 01:21 -33.33401 -71.35867 7438 ft 120 kts 293°
2026-04-24 01:21 -33.33121 -71.36743 7434 ft 107 kts 293°
2026-04-24 01:21 -33.32873 -71.37529 7432 ft 96 kts 293°
2026-04-24 01:21 -33.32652 -71.38235 7419 ft 86 kts 293°
2026-04-24 01:22 -33.32375 -71.39021 7477 ft 119 kts 307°
2026-04-24 01:22 -33.31689 -71.39733 7563 ft 140 kts 320°
2026-04-24 01:22 -33.30807 -71.40412 7557 ft 159 kts 342°
2026-04-24 01:22 -33.29667 -71.40466 7501 ft 173 kts
2026-04-24 01:23 -33.28446 -71.40583 7473 ft 179 kts 350°
2026-04-24 01:23 -33.27217 -71.40883 7465 ft 182 kts 347°
2026-04-24 01:23 -33.25977 -71.41220 7461 ft 183 kts 347°
2026-04-24 01:23 -33.24732 -71.41546 7462 ft 184 kts 348°
2026-04-24 01:24 -33.23475 -71.41861 7459 ft 184 kts 348°
2026-04-24 01:24 -33.22217 -71.42169 7461 ft 184 kts 348°
2026-04-24 01:24 -33.20958 -71.42476 7453 ft 185 kts 348°
2026-04-24 01:24 -33.19699 -71.42780 7463 ft 185 kts 348°
2026-04-24 01:25 -33.18438 -71.43085 7457 ft 185 kts 348°
2026-04-24 01:25 -33.17177 -71.43388 7460 ft 185 kts 348°
2026-04-24 01:25 -33.15916 -71.43690 7457 ft 184 kts 348°
2026-04-24 01:25 -33.14756 -71.43971 7439 ft 156 kts 348°
2026-04-24 01:26 -33.13776 -71.44219 7433 ft 133 kts 348°
2026-04-24 01:26 -33.12938 -71.44424 7427 ft 114 kts 348°
2026-04-24 01:26 -33.12183 -71.44605 7288 ft 111 kts 348°
2026-04-24 01:26 -33.11413 -71.44788 7078 ft 114 kts 349°
2026-04-24 01:27 -33.10637 -71.44971 6886 ft 116 kts 349°
2026-04-24 01:27 -33.09843 -71.45160 6695 ft 117 kts 349°
2026-04-24 01:27 -33.09042 -71.45350 6506 ft 117 kts 349°
2026-04-24 01:27 -33.08243 -71.45541 6308 ft 118 kts 349°
2026-04-24 01:28 -33.07437 -71.45732 6096 ft 118 kts 349°
2026-04-24 01:28 -33.06632 -71.45924 5909 ft 119 kts 349°
2026-04-24 01:28 -33.05818 -71.46117 5711 ft 119 kts 349°
2026-04-24 01:28 -33.05000 -71.46313 5494 ft 121 kts 349°
2026-04-24 01:29 -33.04120 -71.46522 5083 ft 138 kts 349°
2026-04-24 01:29 -33.03129 -71.46758 4628 ft 151 kts 349°
2026-04-24 01:29 -33.02070 -71.47010 4181 ft 154 kts 349°
2026-04-24 01:29 -33.01117 -71.47239 3721 ft 128 kts 348°
2026-04-24 01:30 -33.00277 -71.47442 3216 ft 119 kts 348°
2026-04-24 01:30 -32.99490 -71.47636 2711 ft 114 kts 348°
2026-04-24 01:30 -32.98714 -71.47826 2208 ft 115 kts 348°
2026-04-24 01:30 -32.97938 -71.47991 1822 ft 108 kts 356°
2026-04-24 01:31 -32.97247 -71.48016 1564 ft 98 kts
2026-04-24 01:31 -32.96635 -71.47849 1386 ft 85 kts 38°
2026-04-24 01:31 -32.96218 -71.47401 1370 ft 80 kts 46°
2026-04-24 01:31 -32.95822 -71.46953 1264 ft 78 kts 45°
2026-04-24 01:32 -32.95429 -71.46490 1174 ft 82 kts 45°
2026-04-24 01:32 -32.95029 -71.46030 1286 ft 78 kts 27°
2026-04-24 01:32 -32.94481 -71.46113 1148 ft 77 kts 343°
2026-04-24 01:32 -32.94070 -71.46491 1073 ft 80 kts 281°
2026-04-24 01:33 -32.94282 -71.47043 852 ft 83 kts 206°
2026-04-24 01:33 -32.94752 -71.47531 519 ft 91 kts 230°
2026-04-24 01:33 -32.95062 -71.47997 458 ft 36 kts 231°
2026-04-24 01:33 -32.95160 -71.48160 459 ft 29 kts 233°
2026-04-24 01:34 -32.95286 -71.48356 459 ft 30 kts 232°
2026-04-24 01:34 -32.95405 -71.48536 459 ft 16 kts 231°
2026-04-24 01:34 -32.95432 -71.48561 459 ft 7 kts 198°
2026-04-24 01:34 -32.95477 -71.48508 460 ft 13 kts 100°
2026-04-24 01:35 -32.95481 -71.48489 460 ft 0 kts 101°
2026-04-24 01:40 -32.95549 -71.48369 461 ft 12 kts 127°
2026-04-24 01:40 -32.95527 -71.48346 461 ft 0 kts 320°
2026-04-24 01:50 -32.95353 -71.48387 459 ft 38 kts 13°
2026-04-24 01:51 -32.95133 -71.48133 459 ft 47 kts 52°
2026-04-24 01:51 -32.95016 -71.48116 458 ft 28 kts 314°
2026-04-24 01:51 -32.94834 -71.48092 458 ft 32 kts 47°
2026-04-24 01:51 -32.94757 -71.47984 458 ft 4 kts 135°
2026-04-24 01:52 -32.94759 -71.47983 458 ft 0 kts 143°
2026-04-24 01:52 -32.94780 -71.47993 458 ft 8 kts 204°
2026-04-24 01:52 -32.94768 -71.48005 458 ft 12 kts 105°
2026-04-24 01:52 -32.94777 -71.47994 458 ft 0 kts 162°